Probability
0 0 0 0 0 0 0 0 0 0 1 1 1 0 0 0 2 5 8 10 11 10 8 8 6 5 5 5 4 3 2 2 5 8 11 11 9 8 8 9 10 10 8 7
0 0 0 0 0 0 0 1 1 1 1 1 1 0 1 1 3 5 7 9 10 9 9 9 9 9 8 8 7 6 5 3 4 6 8 9 10 9 8 8 9 10 9 7
0 0 0 0 0 0 0 1 2 2 2 2 2 2 2 4 4 4 5 8 9 9 9 9 10 12 11 11 11 10 8 6 5 5 7 8 9 9 9 8 8 9 8 7
0 0 0 0 0 0 0 1 2 4 4 3 4 4 4 5 5 4 5 7 9 9 8 9 9 11 12 13 13 12 11 10 9 9 9 9 9 11 12 10 8 7 7 7
0 0 0 0 1 1 1 2 2 3 3 4 5 4 5 6 7 7 6 8 10 10 8 10 11 13 14 14 13 13 13 12 12 13 13 12 13 15 16 13 9 7 6 6
0 0 0 1 1 1 1 2 2 2 2 3 5 6 6 9 11 11 9 10 12 12 12 15 17 20 20 18 15 14 14 14 14 14 14 14 16 18 20 19 14 9 7 7
0 0 1 1 1 1 3 4 4 3 3 4 7 10 9 10 14 14 11 12 14 16 19 24 28 29 28 24 20 18 18 18 17 17 16 16 21 25 26 24 20 15 12 12
0 0 1 3 3 3 5 5 5 5 4 6 9 11 11 12 15 14 11 11 13 18 24 31 35 36 34 30 25 22 21 21 20 21 19 21 28 33 32 28 25 23 21 19
1 1 2 3 4 4 4 3 3 3 4 6 9 11 12 13 15 14 10 9 12 17 24 30 35 37 36 34 31 27 25 24 24 25 25 26 32 35 32 28 24 23 22 19
1 1 1 1 2 2 1 1 1 1 2 4 6 9 11 13 15 15 13 13 15 18 23 29 33 34 34 34 34 32 30 30 31 29 28 30 32 31 26 21 18 18 18 16
1 0 0 0 1 1 0 0 0 0 1 2 3 4 8 11 14 16 17 18 19 21 25 30 33 34 35 36 37 35 34 34 34 31 30 32 31 25 17 12 11 12 11 11
0 0 0 0 1 1 0 0 0 0 1 1 1 2 5 8 12 16 18 19 20 23 27 30 32 34 38 41 42 39 36 34 33 31 30 30 28 21 12 5 4 5 4 4
0 0 0 0 1 1 0 0 0 0 1 1 1 2 3 5 8 12 15 16 18 21 24 27 29 32 36 40 41 39 36 33 31 31 30 26 23 20 13 4 1 0 0 0
0 0 0 0 0 0 0 0 0 0 1 1 0 1 2 3 4 8 10 13 16 18 20 23 25 27 30 32 33 32 30 28 27 28 26 22 18 17 14 8 4 1 0 0
0 0 0 0 0 0 0 0 0 0 0 0 0 1 2 2 3 5 6 9 13 14 14 16 20 22 24 26 26 27 25 21 21 23 22 19 16 13 11 9 7 4 2 1
0 0 0 1 1 0 0 0 0 0 0 0 1 2 2 1 1 3 3 6 9 10 10 12 15 18 19 20 22 23 20 14 14 20 21 19 16 12 9 8 8 7 4 3
0 0 0 1 1 1 1 0 0 0 0 0 1 2 1 0 0 1 2 4 6 7 7 9 12 14 16 17 17 18 16 11 10 15 20 19 16 13 9 7 7 7 5 4
0 0 0 1 1 2 2 1 0 0 0 0 1 1 0 0 0 1 2 3 4 4 4 5 8 11 13 13 12 12 13 11 8 10 14 13 11 9 8 7 6 5 4 3
0 0 0 0 0 1 2 2 1 0 0 0 1 1 1 0 0 1 2 2 2 2 2 2 4 7 9 8 7 8 10 9 7 6 6 5 3 3 4 4 4 3 3 2
0 0 0 0 0 0 1 1 2 1 1 1 1 2 2 1 1 1 1 1 1 1 1 1 2 4 6 4 4 5 6 5 4 3 2 0 0 0 1 1 1 1 1 1
0 0 0 0 0 0 0 1 2 2 2 1 1 1 1 1 0 0 0 1 1 0 0 0 1 2 2 2 1 2 2 1 1 1 0 0 0 0 0 0 0 0 0 0
0 0 0 0 0 0 0 0 1 2 2 1 0 1 1 1 1 0 1 1 1 0 0 0 0 0 0 0 0 0 0 0 0 0 0 0 0 0 0 0 0 0 0 0
0 0 0 0 0 0 0 0 0 1 1 0 1 2 2 2 2 1 1 1 1 0 0 0 0 0 0 0 0 0 0 0 0 0 0 0 0 0 0 0 0 0 0 0
0 0 0 0 0 0 0 0 0 0 0 0 1 2 2 2 2 1 1 0 0 0 0 0 0 0 0 0 0 0 0 0 0 0 0 0 0 0 0 0 0 0 0 0
0 0 0 0 0 0 0 0 0 0 0 0 1 1 1 1 1 1 0 0 0 0 0 0 0 0 0 0 0 0 0 0 0 0 0 0 0 0 0 0 0 0 0 0
0 0 0 0 0 0 0 0 0 0 0 0 0 0 0 0 0 0 0 0 0 0 0 0 0 0 0 0 0 0 0 0 0 0 0 0 0 0 0 0 0 0 0 0
0 0 0 0 0 0 0 0 0 0 0 0 0 0 0 0 0 0 0 0 0 0 0 0 0 0 0 0 0 0 0 0 0 0 0 0 0 0 0 0 0 0 0 0
Wind_Speed
8 7 7 10 11 13 15 14 14 11 10 5 3 3 2 4 6 8 10 12 13 13 13 13 13 14 14 14 14 14 14 13 13 13 12 12 12 12 12 11 11 10 10 10
10 10 10 11 12 12 13 13 13 12 9 4 3 3 3 4 6 8 10 12 14 14 14 14 15 15 15 14 14 14 14 14 13 13 13 13 12 12 12 11 11 11 11 11
9 8 9 13 11 11 11 10 10 11 6 3 4 3 3 4 6 7 8 10 13 14 14 14 15 15 15 15 14 14 14 14 14 14 14 14 13 13 13 12 12 11 11 11
7 6 11 4 1 5 7 8 7 6 3 4 4 4 3 2 3 4 5 7 10 12 13 13 14 14 14 15 15 15 15 14 14 14 14 13 13 13 12 11 11 11 11 12
7 9 8 4 2 3 5 5 3 3 3 2 3 2 2 1 1 2 3 5 6 9 12 12 13 14 15 15 16 15 15 15 15 14 14 14 14 13 12 11 11 11 11 12
8 9 7 2 3 1 5 5 2 1 2 3 4 4 2 5 3 2 2 3 5 7 10 11 12 14 15 15 15 15 15 14 14 14 14 14 14 13 12 11 11 11 11 11
10 8 3 5 1 3 6 2 4 3 3 4 3 4 5 5 4 3 1 2 4 7 8 9 11 13 14 14 14 14 13 13 13 13 13 13 12 11 11 11 11 11 11 11
6 7 2 5 1 1 4 5 4 4 4 4 3 3 4 4 4 3 1 1 4 6 7 8 10 12 12 12 11 11 11 11 12 12 12 11 11 11 11 11 11 10 10 10
1 1 5 3 3 3 2 3 4 4 4 4 3 4 4 4 5 4 1 2 4 6 7 7 9 10 11 10 10 10 11 11 10 11 11 10 11 11 10 10 9 9 9 9
1 2 3 3 3 3 2 3 3 4 4 3 4 4 4 4 5 4 2 1 3 6 7 7 7 8 7 8 9 10 10 10 9 9 8 8 6 7 8 8 8 8 8 8
2 1 1 2 3 3 3 3 3 4 4 4 3 3 4 4 4 4 3 2 2 4 6 6 6 6 6 6 8 9 9 8 8 8 7 7 6 4 5 5 5 6 6 6
1 1 1 2 3 3 3 4 4 4 5 5 4 4 5 5 5 5 4 4 5 6 6 6 6 5 4 5 6 7 7 7 6 6 6 6 6 5 3 2 4 3 1 0
2 3 2 2 3 4 4 4 4 5 5 6 6 6 6 7 7 7 8 8 7 7 7 7 7 6 5 5 5 6 5 5 5 5 6 5 5 5 5 4 4 3 2 2
2 1 1 2 3 4 5 5 6 7 7 7 7 8 8 8 9 9 9 9 9 9 8 8 8 7 6 6 6 6 5 5 4 4 4 5 5 5 5 5 5 4 3 4
2 1 1 2 3 3 4 5 7 8 9 8 8 9 9 10 10 10 9 9 10 11 10 10 9 8 6 6 6 6 4 4 3 3 4 4 4 4 3 4 4 4 4 5
2 3 4 4 4 4 5 6 7 8 8 9 9 10 10 11 11 11 11 11 12 12 11 10 9 8 7 6 6 6 5 6 4 3 4 4 3 3 3 3 3 3 3 3
3 3 4 5 5 5 6 7 8 8 8 9 9 9 10 11 11 12 11 11 11 12 11 10 10 9 8 7 6 5 5 6 5 4 4 4 4 3 3 3 3 3 3 4
2 3 3 4 6 7 8 9 10 10 9 9 9 10 11 11 11 11 10 10 11 12 12 11 10 9 9 8 6 5 5 6 5 5 5 4 4 4 4 4 4 4 3 4
4 5 6 7 8 9 9 9 10 10 9 9 10 10 10 10 10 9 10 10 11 11 10 9 9 10 10 9 6 5 6 6 6 6 5 5 4 5 5 5 4 4 3 3
8 9 10 11 11 10 10 9 10 9 9 9 10 10 10 9 9 9 10 10 8 7 7 7 8 9 8 7 5 6 7 7 6 6 5 5 5 5 5 5 4 4 3 3
10 11 12 11 12 11 10 10 10 10 9 9 9 9 9 9 9 8 8 9 8 6 6 7 7 7 6 5 4 6 7 6 6 6 5 5 5 5 5 5 4 4 4 3
10 11 12 11 12 11 10 9 9 10 10 9 9 9 9 9 10 10 9 7 7 5 5 7 7 8 6 4 6 7 7 6 5 5 5 4 4 4 4 4 4 4 3 3
10 11 11 10 11 10 10 9 9 9 9 9 8 8 8 7 6 7 8 7 6 6 6 8 8 7 7 4 6 6 6 6 5 5 5 4 4 4 3 3 3 3 3 3
10 10 10 9 10 10 10 9 9 8 9 8 8 7 6 6 7 7 7 7 7 6 7 8 7 6 4 5 6 6 6 5 5 4 4 4 4 3 3 4 4 4 4 4
10 10 10 9 9 8 8 8 9 8 8 7 8 8 6 6 6 6 6 7 6 4 6 6 4 4 3 5 5 5 5 5 5 4 3 3 3 3 3 3 3 3 3 4
9 8 8 8 7 6 5 6 6 6 6 6 6 6 6 6 6 5 5 6 7 5 4 4 4 3 5 5 5 5 4 4 3 3 4 3 4 3 3 4 4 3 3 3
9 8 7 7 7 6 6 6 6 6 6 6 6 6 6 5 5 5 5 5 4 4 5 4 4 4 5 5 5 5 4 4 3 3 3 3 3 3 4 4 4 3 4 4
Wind_Direction
255 264 251 241 236 230 234 248 261 266 268 285 311 302 254 209 197 192 187 186 185 182 180 179 178 179 180 180 178 178 179 182 183 183 183 185 185 185 185 187 190 190 193 197
242 242 243 245 244 241 240 248 255 264 270 304 320 293 247 220 210 201 195 192 189 187 183 182 182 182 181 181 180 180 183 183 183 183 183 186 186 185 186 190 195 193 198 200
241 231 241 240 236 238 239 247 257 261 276 312 300 295 271 237 224 214 207 199 193 191 189 187 186 184 182 180 178 182 186 185 182 184 186 188 188 186 188 191 194 197 200 204
248 231 237 232 233 249 247 249 260 274 292 305 308 314 302 266 233 226 217 208 199 195 191 189 187 185 183 179 180 185 187 187 185 186 187 188 189 190 191 192 195 199 203 206
240 234 236 198 193 240 242 251 278 266 275 303 324 257 185 55 295 251 234 219 208 201 193 188 187 183 183 183 184 188 190 190 188 188 188 189 191 192 192 195 198 201 204 208
233 241 240 143 97 307 250 221 57 315 293 292 278 256 87 41 4 329 271 221 203 196 189 184 185 182 184 186 187 192 193 192 189 190 192 193 194 194 193 196 202 204 206 208
235 240 238 69 73 236 236 94 28 350 336 314 313 331 346 341 337 331 304 222 191 185 181 179 178 179 186 188 191 194 193 191 190 191 195 197 194 193 193 196 201 208 207 207
230 234 200 61 316 323 22 14 353 356 359 356 359 347 347 353 348 334 301 201 174 169 170 168 170 175 183 190 190 188 188 189 191 193 197 194 192 192 194 197 199 204 209 212
274 38 61 38 19 24 6 352 352 354 358 360 356 358 0 8 359 346 321 168 163 157 156 159 167 176 185 188 185 182 183 186 188 190 196 193 189 189 191 195 203 204 204 210
191 130 82 51 39 35 33 20 5 4 6 9 11 6 11 18 8 358 11 115 153 153 153 155 163 173 182 178 178 180 182 183 183 182 182 183 188 192 194 194 201 205 206 208
212 119 61 70 34 20 27 28 22 16 20 22 25 23 26 28 20 19 31 59 122 139 142 142 149 160 170 167 169 175 177 175 175 174 173 170 176 188 200 198 202 206 208 208
302 19 324 4 14 25 42 33 27 29 37 36 41 45 49 46 39 40 49 63 87 103 112 119 123 128 136 146 155 160 162 167 171 171 167 171 168 163 89 71 97 120 85 172
329 352 10 17 23 41 55 50 44 53 57 55 55 60 62 60 55 56 59 62 72 85 94 100 104 104 108 120 132 141 146 150 157 159 158 167 169 168 158 135 91 99 130 152
15 12 46 29 44 53 66 67 64 68 70 70 69 71 73 70 64 59 59 62 69 77 82 86 88 86 94 109 117 123 127 125 138 142 150 154 159 166 168 166 163 163 160 170
15 0 105 98 88 83 88 92 85 81 81 78 77 74 73 72 68 63 59 62 68 71 71 72 73 70 74 92 100 104 109 109 119 124 131 136 143 149 150 154 157 155 151 147
72 105 115 120 113 107 105 102 99 95 92 88 82 78 77 78 75 69 62 61 65 64 61 63 63 61 66 77 93 99 97 82 90 110 115 118 121 126 128 134 141 139 131 124
123 120 115 118 115 109 107 109 107 103 98 92 89 88 84 80 75 69 66 65 67 65 60 57 55 53 57 62 71 85 93 96 97 95 93 96 101 105 105 104 100 96 87 72
98 120 122 126 121 114 108 106 106 104 99 97 94 86 79 75 72 70 68 70 70 66 58 54 51 57 59 57 56 62 75 81 81 76 75 71 71 78 82 86 90 92 98 108
104 113 112 111 113 112 108 106 105 101 98 96 91 86 82 78 75 74 71 68 66 65 55 53 52 60 63 54 47 66 69 75 78 74 76 79 73 71 74 74 74 73 70 70
103 104 104 103 102 104 105 106 106 104 102 100 98 94 88 84 82 83 78 71 60 57 59 52 58 61 61 55 42 72 72 72 74 74 71 70 71 71 70 68 66 67 64 59
100 101 100 99 99 98 101 106 106 105 102 99 96 94 92 89 85 83 82 80 67 51 62 67 61 55 54 43 51 68 71 72 73 71 70 70 69 66 64 61 58 54 49 43
97 98 98 98 98 95 94 97 99 102 101 99 97 96 96 94 92 86 76 72 75 44 56 64 60 45 23 23 64 63 63 63 65 66 65 64 65 65 61 55 50 45 36 29
88 91 93 95 97 97 95 95 96 97 97 95 92 91 87 78 75 82 83 71 70 55 61 61 44 25 359 47 64 64 61 57 54 55 56 53 54 53 50 44 40 32 24 15
92 92 92 94 96 94 91 89 88 90 93 91 85 82 85 90 83 76 80 80 60 58 71 66 38 11 356 60 63 62 61 55 49 46 46 46 47 46 41 33 27 19 13 7
91 91 91 90 88 86 90 92 90 88 88 87 84 80 75 70 73 74 76 80 79 69 82 85 63 1 27 52 56 55 54 47 35 28 38 34 33 35 32 26 17 5 360 359
86 83 77 73 74 76 79 82 84 81 79 80 79 74 71 71 74 76 78 80 78 72 67 73 65 45 43 44 42 39 43 56 50 39 38 31 27 25 21 14 8 0 356 356
86 83 79 75 68 63 64 68 71 69 66 64 69 69 66 65 66 67 69 72 74 69 65 59 51 46 44 39 36 32 30 32 32 30 33 30 23 18 14 4 360 359 354 356